Voltar ao catálogo

STARLINK-31386

AtivoComunicaçõesVLEO
NORAD 59298·PAYLOAD·🇺🇸 United States

Lançado Mar 24, 2024 de Cape Canaveral Space Force Station

Loading…

Próximas Passagens (próximas 24 horas)

TLE

AtualizadoSource: CelesTrak SupGP

Época: Sep 15, 2026, 02:42 UTC

1 59298C 24056C   26258.11298611 -.00037009  00000+0 -13407-2 0  2587
2 59298  42.9993 240.9265 0001369 268.4940 119.4809 15.27591477    12

Acompanhe STARLINK-31386 em tempo real com AllMySat

Download on the App Store